CW2969 Weather Reports


time (UTC)temp
F
wind
direction
speed
knots
gust
knots
rain 1hr
in
rain 24hr
in
rain mn
in
humidity
%
barometer
mb
20260509175523 85 319 0.9 2.6 0.00 0.03 0.03 76 1009.4
20260509175023 84 284 2.6 6.1 0.00 0.03 0.03 76 1009.3
20260509174523 84 233 0.9 6.1 0.00 0.03 0.03 76 1009.4
20260509174024 84 244 0.0 3.5 0.00 0.03 0.03 77 1009.7
20260509173524 84 330 0.9 2.6 0.00 0.03 0.03 77 1009.9
20260509173023 84 321 1.7 2.6 0.00 0.03 0.03 77 1009.9
20260509172523 84 213 0.0 2.6 0.00 0.03 0.03 77 1009.9
20260509172023 83 207 1.7 2.6 0.00 0.03 0.03 78 1009.8
20260509171523 83 180 0.9 2.6 0.00 0.03 0.03 78 1009.7
20260509170523 82 306 1.7 2.6 0.00 0.03 0.03 78 1009.7
20260509170023 82 154 0.9 2.6 0.00 0.03 0.03 79 1009.8
20260509165523 82 265 1.7 5.2 0.00 0.03 0.03 79 1009.9
20260509164523 81 147 2.6 5.2 0.00 0.03 0.03 79 1010.0
20260509163523 80 187 2.6 7.8 0.00 0.03 0.03 80 1010.1
20260509163023 80 136 0.9 5.2 0.00 0.03 0.03 80 1010.0
20260509162522 80 184 0.9 1.7 0.00 0.03 0.03 80 1010.1
20260509161523 79 284 0.9 4.3 0.00 0.03 0.03 80 1009.9
20260509160522 79 188 0.9 3.5 0.00 0.03 0.03 80 1009.9
20260509155022 78 141 6.1 6.1 0.00 0.03 0.03 79 1009.8
20260509154022 77 92 0.0 3.5 0.00 0.03 0.03 79 1009.8
20260509153522 77 147 1.7 3.5 0.00 0.03 0.03 79 1009.8
20260509153022 77 119 2.6 4.3 0.00 0.03 0.03 79 1009.9
20260509152522 77 139 1.7 4.3 0.00 0.03 0.03 78 1009.9
20260509152022 77 186 0.0 2.6 0.00 0.03 0.03 78 1009.9
20260509151522 77 174 0.9 4.3 0.00 0.03 0.03 77 1010.0
20260509151022 77 113 1.7 4.3 0.00 0.03 0.03 77 1010.0
20260509150522 76 186 0.9 3.5 0.00 0.03 0.03 77 1009.9
20260509150022 76 116 1.7 3.5 0.01 0.03 0.03 76 1010.0
20260509145522 76 218 1.7 3.5 0.01 0.03 0.03 76 1009.9
20260509144522 75 237 0.9 6.1 0.01 0.03 0.03 76 1009.8
20260509143522 75 95 3.5 7.0 0.01 0.03 0.03 78 1009.8
20260509143022 75 178 0.0 7.0 0.01 0.03 0.03 78 1009.8
20260509142522 75 173 1.7 5.2 0.01 0.03 0.03 78 1009.3
20260509142022 75 205 0.9 6.1 0.01 0.03 0.03 78 1009.3
20260509141021 74 223 1.7 4.3 0.01 0.03 0.03 78 1009.6
20260509140521 74 145 0.9 0.9 0.01 0.03 0.03 78 1009.8
20260509140021 74 114 0.0 1.7 0.00 0.02 0.02 78 1009.9
20260509135521 74 114 0.9 1.7 0.00 0.02 0.02 78 1009.9
20260509135021 74 114 0.0 0.0 0.00 0.02 0.02 78 1009.9
20260509134521 74 114 0.0 0.0 0.00 0.02 0.02 78 1009.9
20260509134021 74 114 0.0 0.0 0.00 0.02 0.02 78 1009.9
20260509133021 74 114 0.0 0.0 0.00 0.02 0.02 79 1009.9
20260509132521 74 114 0.0 0.0 0.00 0.02 0.02 79 1009.9
20260509132021 74 114 0.0 0.0 0.00 0.02 0.02 79 1010.0
20260509131521 74 114 0.0 0.9 0.00 0.02 0.02 79 1009.9
20260509131021 74 114 0.0 0.9 0.00 0.02 0.02 79 1009.8
20260509130520 74 121 0.0 0.0 0.00 0.02 0.02 79 1009.7
20260509125521 74 122 0.0 0.9 0.00 0.02 0.02 79 1009.5
20260509125020 74 347 0.0 0.0 0.00 0.02 0.02 79 1009.2
20260509124520 74 347 0.0 0.0 0.00 0.02 0.02 79 1009.1
20260509124020 74 347 0.0 0.0 0.00 0.02 0.02 79 1009.2
20260509123020 74 68 0.0 0.0 0.00 0.02 0.02 79 1009.3
20260509122521 74 68 0.0 0.0 0.00 0.02 0.02 79 1009.3
20260509122020 74 68 0.0 0.0 0.00 0.02 0.02 79 1009.4
20260509121520 74 68 0.0 0.0 0.00 0.02 0.02 79 1009.4
20260509121020 74 68 0.0 0.0 0.00 0.02 0.02 79 1009.6
20260509120020 74 68 0.0 0.0 0.00 0.02 0.02 80 1009.5
20260509115520 74 68 0.0 0.0 0.00 0.02 0.02 80 1009.5
20260509115020 74 68 0.0 0.0 0.00 0.02 0.02 80 1009.6
20260509114520 74 68 0.0 0.9 0.00 0.02 0.02 80 1009.7
20260509113020 74 41 0.0 0.9 0.00 0.02 0.02 80 1010.1
20260509112520 74 46 0.0 0.0 0.00 0.02 0.02 80 1009.9
20260509112019 74 46 0.0 0.0 0.00 0.02 0.02 80 1010.0
20260509111520 74 46 0.0 0.9 0.00 0.02 0.02 80 1010.2
20260509111020 74 46 0.0 1.7 0.00 0.02 0.02 80 1010.2
20260509110520 74 46 0.0 3.5 0.00 0.02 0.02 80 1010.2
20260509110019 74 31 0.9 3.5 0.00 0.02 0.02 80 1010.2
20260509105519 74 59 0.0 1.7 0.00 0.02 0.02 80 1010.4
20260509105019 74 80 0.0 1.7 0.00 0.02 0.02 80 1010.4
20260509104519 74 70 1.7 1.7 0.00 0.02 0.02 80 1010.5
20260509103519 74 73 0.0 1.7 0.00 0.02 0.02 81 1010.4
20260509103019 74 5 0.0 1.7 0.00 0.02 0.02 81 1010.4
20260509102519 74 32 0.0 0.9 0.00 0.02 0.02 81 1010.4
20260509102019 74 32 0.0 0.0 0.00 0.02 0.02 81 1010.1
20260509101519 74 32 0.0 0.0 0.00 0.02 0.02 81 1009.9
20260509101019 74 32 0.0 0.0 0.00 0.02 0.02 81 1009.6
20260509100019 74 32 0.9 0.9 0.01 0.02 0.02 81 1009.3
20260509095519 74 32 0.0 0.0 0.01 0.02 0.02 81 1009.3
20260509095019 74 32 0.0 0.0 0.01 0.02 0.02 81 1009.2
20260509094018 74 32 0.0 0.0 0.02 0.02 0.02 81 1009.2
20260509093519 74 32 0.0 0.0 0.02 0.02 0.02 81 1009.2
20260509093018 74 32 0.0 0.0 0.02 0.02 0.02 81 1009.2
20260509092518 74 32 0.0 0.0 0.02 0.02 0.02 81 1009.3
20260509092018 74 32 0.0 0.0 0.02 0.02 0.02 81 1009.1
20260509090518 74 32 0.0 0.0 0.02 0.02 0.02 81 1009.0
20260509090017 74 32 0.0 0.0 0.01 0.01 0.01 81 1009.0
20260509085518 74 32 0.0 0.0 0.01 0.01 0.01 81 1009.1
20260509085018 74 32 0.0 0.0 0.01 0.01 0.01 81 1009.1
20260509084518 74 32 0.0 0.0 0.01 0.01 0.01 81 1009.2
20260509084017 74 32 0.0 1.7 0.00 0.00 0.00 81 1009.2
20260509083518 74 17 0.0 1.7 0.00 0.00 0.00 81 1009.3
20260509083017 75 82 0.0 0.9 0.00 0.00 0.00 81 1009.4
20260509082517 75 101 0.0 0.9 0.00 0.00 0.00 82 1009.5
20260509082017 75 90 0.0 0.9 0.00 0.00 0.00 82 1009.6
20260509081017 75 16 0.0 0.9 0.00 0.00 0.00 82 1009.6
20260509075517 75 115 1.7 2.6 0.00 0.00 0.00 82 1009.2
20260509075017 75 133 0.0 1.7 0.00 0.00 0.00 82 1009.2
20260509074517 75 133 0.0 2.6 0.00 0.00 0.00 82 1009.1
20260509074017 75 115 1.7 2.6 0.00 0.00 0.00 82 1009.2
20260509073516 74 193 0.0 0.9 0.00 0.00 0.00 82 1009.4
20260509073017 74 193 0.0 0.9 0.00 0.00 0.00 82 1009.5
20260509072016 74 252 0.0 0.0 0.00 0.00 0.00 82 1009.3
20260509071516 74 252 0.0 0.0 0.00 0.00 0.00 82 1009.5
20260509071016 74 252 0.0 0.0 0.00 0.00 0.00 82 1009.6
20260509070516 74 252 0.0 0.0 0.00 0.00 0.00 82 1009.7
20260509070016 74 252 0.0 2.6 0.00 0.00 0.00 82 1009.7
20260509065516 74 300 0.0 2.6 0.00 0.00 0.00 82 1009.4
20260509065016 74 165 0.0 1.7 0.00 0.00 0.00 82 1009.2
20260509064516 74 128 0.9 2.6 0.00 0.00 0.00 82 1009.3
20260509064016 74 178 0.0 2.6 0.00 0.00 0.00 82 1009.2
20260509063516 74 126 0.9 1.7 0.00 0.00 0.00 82 1009.2
20260509063016 74 127 0.0 1.7 0.00 0.00 0.00 82 1009.2
20260509062516 74 192 0.9 3.5 0.00 0.00 0.00 82 1009.4
20260509062016 74 148 2.6 3.5 0.00 0.00 0.00 82 1009.4
20260509061516 74 182 0.9 2.6 0.00 0.00 0.00 82 1009.3
20260509061016 74 140 0.9 5.2 0.00 0.00 0.00 82 1009.2
20260509060516 74 118 0.0 5.2 0.00 0.00 0.00 82 1009.1
20260509060015 74 215 0.9 3.5 0.00 0.00 0.00 82 1009.1
20260509055516 74 188 2.6 4.3 0.00 0.00 0.00 82 1009.1
20260509055016 74 150 1.7 4.3 0.00 0.00 0.00 82 1009.2
20260509054515 74 139 2.6 4.3 0.00 0.00 0.00 82 1009.3
20260509054015 74 176 1.7 2.6 0.00 0.00 0.00 82 1009.3
20260509053515 74 133 1.7 2.6 0.00 0.00 0.00 82 1009.3
20260509053015 74 123 1.7 2.6 0.00 0.00 0.00 82 1009.3
20260509052515 74 198 0.0 1.7 0.00 0.00 0.00 82 1009.1
20260509052015 74 171 1.7 1.7 0.00 0.00 0.00 82 1009.0
20260509051515 74 213 0.0 1.7 0.00 0.00 0.00 82 1008.8
20260509051015 74 153 1.7 1.7 0.00 0.00 0.00 82 1008.8
20260509050515 74 175 0.0 1.7 0.00 0.00 0.00 82 1008.9
20260509050015 74 175 0.0 1.7 0.00 0.00 0.00 82 1008.9
20260509045015 74 202 0.0 1.7 0.00 0.00 0.00 82 1008.8
20260509044515 74 157 0.0 1.7 0.00 0.00 0.00 81 1008.8
20260509044015 74 162 0.0 1.7 0.00 0.00 0.00 81 1008.7
20260509043515 75 165 0.0 0.0 0.00 0.00 0.00 81 1008.8
20260509043015 75 165 0.0 1.7 0.00 0.00 0.00 81 1008.9
20260509042514 75 165 0.0 1.7 0.00 0.00 0.00 81 1008.9
20260509042015 75 177 0.0 1.7 0.00 0.00 0.00 81 1008.8
20260509041514 75 161 0.9 1.7 0.00 0.00 0.00 81 1009.0
20260509041014 75 200 0.0 0.9 0.00 0.00 0.00 81 1009.2
20260509040514 75 200 0.0 0.9 0.00 0.00 0.00 81 1009.2
20260509035514 75 130 0.0 0.0 0.00 0.00 0.00 81 1009.1
20260509035014 76 130 0.0 0.0 0.00 0.00 0.00 80 1009.1
20260509034514 76 130 0.0 0.0 0.00 0.00 0.00 80 1009.1
20260509034014 76 130 0.0 0.0 0.00 0.00 0.00 80 1008.9
20260509033514 76 130 0.0 0.0 0.00 0.00 0.00 80 1009.0
20260509033014 76 130 0.0 0.9 0.00 0.00 0.00 80 1008.9
20260509032514 76 130 0.0 2.6 0.00 0.00 0.00 80 1008.9
20260509032014 76 121 1.7 2.6 0.00 0.00 0.00 80 1008.8
20260509031514 76 157 0.9 2.6 0.00 0.00 0.00 80 1008.7
20260509031014 77 205 0.0 2.6 0.00 0.00 0.00 80 1008.7
20260509030514 77 130 0.0 3.5 0.00 0.00 0.00 80 1008.6
20260509025514 77 151 0.0 1.7 0.00 0.00 0.00 80 1008.6
20260509025014 77 152 0.0 1.7 0.00 0.00 0.00 79 1008.6
20260509024514 77 157 0.0 0.9 0.00 0.00 0.00 79 1008.5
20260509024014 77 129 0.0 0.0 0.00 0.00 0.00 79 1008.6
20260509023513 77 105 0.0 0.0 0.00 0.00 0.00 79 1008.5
20260509022514 77 105 0.9 1.7 0.00 0.00 0.00 79 1008.4
20260509022014 77 105 0.0 1.7 0.00 0.00 0.00 79 1008.2
20260509021014 78 190 1.7 5.2 0.00 0.00 0.00 78 1008.0
20260509020514 78 150 0.9 1.7 0.00 0.00 0.00 78 1007.8
20260509020013 78 123 0.0 2.6 0.00 0.00 0.00 78 1007.7
20260509015513 78 96 0.0 3.5 0.00 0.00 0.00 78 1007.6
20260509015013 78 101 0.0 3.5 0.00 0.00 0.00 78 1007.6
20260509014514 78 154 0.9 2.6 0.00 0.00 0.00 78 1007.7
20260509013513 78 138 4.3 4.3 0.00 0.00 0.00 77 1007.7
20260509012513 78 124 1.7 1.7 0.00 0.00 0.00 77 1007.8
20260509012013 78 102 0.9 7.0 0.00 0.00 0.00 77 1007.7
20260509011513 78 172 4.3 7.0 0.00 0.00 0.00 77 1007.7
20260509011013 79 98 1.7 5.2 0.00 0.00 0.00 77 1007.7
20260509010512 79 117 0.0 1.7 0.00 0.00 0.00 77 1007.6
20260509010013 79 74 0.9 3.5 0.00 0.00 0.00 77 1007.6
20260509005512 79 121 0.9 3.5 0.00 0.00 0.00 76 1007.6
20260509005013 79 201 3.5 3.5 0.00 0.00 0.00 76 1007.5
20260509004013 79 122 0.9 5.2 0.00 0.00 0.00 76 1007.5
20260509003012 79 110 5.2 5.2 0.00 0.00 0.00 76 1007.5
20260509002512 79 130 2.6 2.6 0.00 0.00 0.00 75 1007.5
20260509002012 79 164 0.0 2.6 0.00 0.00 0.00 75 1007.6
20260509001012 79 133 0.0 1.7 0.00 0.00 0.00 75 1007.6
20260509000512 80 141 0.0 2.6 0.00 0.00 0.00 75 1007.7
20260509000012 80 109 1.7 3.5 0.00 0.00 0.00 75 1007.6
20260508235512 80 196 1.7 3.5 0.00 0.00 0.00 74 1007.5
20260508235012 80 192 1.7 2.6 0.00 0.00 0.00 74 1007.5
20260508234512 80 125 0.9 1.7 0.00 0.00 0.00 74 1007.5
20260508234012 80 172 1.7 4.3 0.00 0.00 0.00 74 1007.6
20260508233512 81 119 0.9 4.3 0.00 0.00 0.00 74 1007.5
20260508233012 81 120 1.7 4.3 0.00 0.00 0.00 74 1007.5
20260508232512 81 168 0.9 7.0 0.00 0.00 0.00 74 1007.5
20260508232011 81 254 1.7 7.0 0.00 0.00 0.00 74 1007.6
20260508231512 81 133 0.9 3.5 0.00 0.00 0.00 73 1007.6
20260508231011 81 165 3.5 5.2 0.00 0.00 0.00 73 1007.7
20260508230512 81 176 2.6 5.2 0.00 0.00 0.00 73 1007.7
20260508230011 81 212 1.7 4.3 0.00 0.00 0.00 73 1007.7
20260508225511 81 205 3.5 4.3 0.00 0.00 0.00 73 1007.6
20260508225012 81 236 1.7 3.5 0.00 0.00 0.00 73 1007.6
20260508223511 81 206 0.9 3.5 0.00 0.00 0.00 72 1007.5
20260508223011 82 123 2.6 3.5 0.00 0.00 0.00 72 1007.5
20260508222511 82 217 0.9 2.6 0.00 0.00 0.00 71 1007.6
20260508222011 82 137 0.9 2.6 0.00 0.00 0.00 72 1007.6
20260508220510 82 220 0.9 7.0 0.00 0.00 0.00 72 1007.7
20260508220010 82 98 0.9 7.0 0.00 0.00 0.00 72 1007.7
20260508215010 81 90 2.6 2.6 0.00 0.00 0.00 72 1007.8
20260508214510 81 135 0.0 7.0 0.00 0.00 0.00 72 1007.9
20260508213510 81 140 0.0 1.7 0.00 0.00 0.00 72 1007.9
20260508212010 80 124 1.7 2.6 0.00 0.00 0.00 72 1008.2
20260508211510 80 105 0.0 1.7 0.00 0.00 0.00 72 1008.3
20260508211010 80 217 0.9 3.5 0.00 0.00 0.00 73 1008.4
20260508210510 80 113 0.0 3.5 0.00 0.00 0.00 72 1008.6
20260508210010 80 98 1.7 4.3 0.00 0.00 0.00 73 1008.6
20260508205510 80 84 0.9 4.3 0.00 0.00 0.00 72 1008.8
20260508205009 80 123 3.5 5.2 0.00 0.00 0.00 72 1008.7
20260508204509 80 71 2.6 5.2 0.00 0.00 0.00 72 1008.8
20260508204009 80 147 1.7 3.5 0.00 0.00 0.00 73 1008.8
20260508203509 80 111 2.6 5.2 0.00 0.00 0.00 72 1009.0
20260508203009 80 125 3.5 5.2 0.00 0.00 0.00 72 1008.9
20260508202510 80 121 4.3 4.3 0.00 0.00 0.00 72 1008.9
20260508202009 80 85 0.9 4.3 0.00 0.00 0.00 72 1009.0
20260508201509 80 107 2.6 3.5 0.00 0.00 0.00 72 1009.0
20260508201009 80 126 2.6 7.8 0.00 0.00 0.00 73 1008.8
20260508200509 79 127 3.5 7.8 0.00 0.00 0.00 72 1009.0
20260508200009 79 139 3.5 3.5 0.00 0.00 0.00 73 1009.2
20260508195509 79 219 0.9 6.1 0.00 0.00 0.00 73 1009.2
20260508195009 79 82 0.0 6.1 0.00 0.00 0.00 73 1009.3
20260508194509 79 187 2.6 3.5 0.00 0.00 0.00 73 1009.4
20260508194009 78 101 0.0 2.6 0.00 0.00 0.00 73 1009.4
20260508193009 78 5 0.9 7.0 0.00 0.00 0.00 73 1009.6
20260508192509 78 254 2.6 2.6 0.00 0.00 0.00 73 1009.6
20260508192009 78 112 0.0 1.7 0.00 0.00 0.00 73 1009.7
20260508191509 78 105 1.7 2.6 0.00 0.00 0.00 73 1009.7
20260508191008 78 112 0.9 2.6 0.00 0.00 0.00 73 1009.8
20260508190038 78 108 0.9 3.5 0.00 0.00 0.00 73 1009.8
20260508185508 78 115 0.9 1.7 0.00 0.00 0.00 73 1009.9
20260508185008 78 103 0.9 0.9 0.00 0.00 0.00 73 1010.0
20260508184508 77 55 0.0 4.3 0.00 0.00 0.00 73 1010.0
20260508184008 77 109 1.7 4.3 0.00 0.00 0.00 73 1010.1
20260508183508 77 164 1.7 5.2 0.00 0.00 0.00 74 1010.2
20260508183008 76 105 3.5 5.2 0.00 0.00 0.00 74 1010.2
20260508182508 76 115 0.9 7.8 0.00 0.00 0.00 74 1010.4
20260508182009 76 135 3.5 7.8 0.00 0.00 0.00 74 1010.5
20260508181008 76 85 0.0 5.2 0.00 0.00 0.00 74 1010.7
20260508180508 76 84 0.0 2.6 0.00 0.00 0.00 73 1010.8
20260508180038 76 108 0.0 0.9 0.00 0.00 0.00 74 1010.9